Tracking 28790 objects as of 19-Apr-2024
HD Live streaming from Space Station
objects crossing your sky now

THORAD AGENA D DEB

Track THORAD AGENA D DEB now!
10-day predictions


NORAD ID: 5842
Int'l Code: 1970-025ML
Perigee: 568.4 km
Apogee: 589.7 km
Inclination: 100.0 °
Period: 96.1 minutes
Semi major axis: 6950 km
RCS: 0.026 m2 (small)
Launch date: April 8, 1970
Source: United States (US)
Launch site: AIR FORCE WESTERN TEST RANGE (AFWTR)

Note: This is SATELLITE DEBRIS
Your satellite tracking list
Your tracking list is empty




NASA's NSSDC Master Catalog

Two Line Element Set (TLE):
1  5842U 70025ML  24110.07639928  .00092299  00000-0  76327-2 0  9993
2  5842  99.9842 154.2709 0015310 330.7379  29.2976 14.98367953784775
Source of the keplerian elements: AFSPC